[[{"header":{"parameterUnit":"m.s-1","parameterCategory":1,"la1":30.2991,"la2":30.254,"lo1":-89.0895,"lo2":-89.0444,"dy":0.0017,"dx":0.0017,"nx":28,"ny":28,"refTime":"2024-04-29T03:00:00:Z","depth":0,"parameterNumber":2,"parameterNumberName":"U-component_of_WINDS"},"data":[0,0,0,0,0,0,0,0,0,0,0,0,0,0,0,0,0,0,0,0,0,0,0,0,0,0,0,0,0,0,0,0,0,0,0,0,0,0,0,0,0,0,0,0,0,0,0,0,0,0,0,0,0,0,0,0,0,0,3.4997,3.4999,0,3.5126,3.5127,3.5129,3.5108,3.5105,3.5103,3.5101,3.5232,3.5238,3.5243,0,0,0,0,0,0,0,0,0,0,0,0,0,3.4733,3.4738,3.4997,3.4999,3.5,3.5126,3.5128,3.5129,3.5108,3.5105,3.5103,3.51,3.523,3.5237,3.5244,0,0,0,0,0,0,0,0,0,0,0,0,0,3.4853,3.4739,3.4997,3.5005,3.5007,3.5125,3.5128,3.513,3.5109,3.5105,3.5102,3.5099,3.5228,3.5236,3.5244,3.5363,0,0,3.527,3.5274,0,0,0,0,0,0,0,0,3.4846,3.4863,3.5002,3.5005,3.5007,3.5097,3.5082,3.5208,3.5109,3.507,3.5101,3.5097,3.519,3.5201,3.5233,3.5369,3.5375,3.5271,3.5276,3.5279,3.5282,0,0,0,0,0,0,0,3.4838,3.4857,3.5048,3.5004,3.5007,3.5002,3.5015,3.5106,3.5147,3.5073,3.5072,3.5087,3.5191,3.5225,3.5236,3.5377,3.527,3.5278,3.5283,3.5286,3.5617,3.5621,0,0,0,0,0,0,3.4827,3.485,3.5044,3.5052,3.4917,3.501,3.5024,3.5072,3.5146,3.5154,3.509,3.5086,3.5212,3.5226,3.524,3.5384,3.5279,3.5287,3.5292,3.5613,3.5618,3.5622,0,0,0,0,0,0,3.4822,3.4845,3.5039,3.4951,3.4975,3.5018,3.5071,3.5076,3.511,3.5159,3.5166,3.5117,3.521,3.5228,3.5333,3.5388,3.5291,3.5298,3.5609,3.5615,3.562,3.5671,0,0,0,0,0,0,3.4814,3.4843,3.4888,3.4952,3.498,3.5129,3.5074,3.5081,3.5125,3.512,3.5186,3.5194,3.5209,3.532,3.5341,3.5398,3.5305,3.5604,3.5611,3.5618,3.5665,3.5678,3.5689,0,0,0,0,0,3.4805,3.4898,3.4891,3.4914,3.5038,3.5133,3.5149,3.5164,3.5129,3.5175,3.5207,3.5192,3.5379,3.5331,3.5354,3.5414,3.5601,3.5609,3.5617,3.5659,3.5676,3.5689,0,0,0,0,0,0,3.4839,3.4906,3.4899,3.5015,3.5069,3.5129,3.5187,3.518,3.5244,3.5237,3.5253,3.5268,3.5374,3.5405,3.5351,3.5533,3.5485,3.5498,3.5509,3.5524,3.5536,3.5526,3.5312,0,0,0,0,0,3.486,3.4931,3.4986,3.5083,3.5111,3.5145,3.5186,3.5194,3.5249,3.5271,3.531,3.5365,3.5436,3.5482,3.555,3.567,3.5684,3.5722,3.5735,3.5744,3.5755,3.5821,3.5839,3.565,3.565,3.5649,0,0,3.4904,3.4949,3.4994,3.5091,3.5133,3.5207,3.5163,3.5243,3.5298,3.5283,3.5384,3.5415,3.5477,3.5589,3.5641,3.5618,3.5811,3.5755,3.5763,3.5769,3.5832,3.5849,3.5865,3.5655,3.5654,3.5654,0,0,3.5021,3.5063,3.5149,3.5192,3.5256,3.5279,3.5299,3.5361,3.5381,3.5483,3.5473,3.5539,3.5661,3.5705,3.5743,3.5879,3.5868,3.5901,3.5964,3.6028,3.6043,3.6056,3.6104,3.6121,3.5912,3.5912,3.5912,0,3.5068,3.5178,3.5194,3.5275,3.5318,3.5309,3.5396,3.5437,3.552,3.555,3.5524,3.5677,3.5718,3.584,3.5873,3.5905,3.5929,3.5893,3.604,3.6053,3.6066,3.6111,3.6129,3.5916,3.5915,3.5915,3.5915,0,3.5232,3.5309,3.537,3.5451,3.5502,3.5585,3.5613,3.5662,3.5665,3.569,3.5794,3.5843,3.5921,3.5951,3.5955,3.6075,3.6058,3.6036,3.5988,3.6087,3.613,3.6148,3.5921,3.592,3.5919,3.5918,0,0,3.5373,3.5462,3.5484,3.5521,3.5592,3.5652,3.5735,3.5811,3.5853,3.5911,3.5981,3.6085,3.6065,3.6109,3.6118,3.6174,3.6278,3.6144,3.6146,3.6167,3.6412,3.6428,3.6448,3.6271,3.6275,3.6277,3.6407,0,3.5496,3.5643,3.566,3.5791,3.5862,3.5856,3.5928,3.5979,3.6005,3.607,3.6098,3.6171,3.6139,3.6166,3.6221,3.6253,3.6327,3.6244,3.6336,3.6339,3.6319,3.6471,3.6487,3.6607,3.6424,3.6427,3.6429,0,3.566,3.5723,3.5861,3.5923,3.5953,3.6018,3.609,3.6151,3.621,3.6225,3.6274,3.6276,3.6362,3.6311,3.643,3.6373,3.6412,3.6433,3.6438,3.6446,3.6389,3.6482,3.6645,3.6663,3.6456,3.6453,3.6452,0,3.5748,3.5868,3.5966,3.5998,3.6072,3.6118,3.6151,3.6206,3.6251,3.6314,3.6343,3.6415,3.6454,3.651,3.6531,3.6492,3.6648,3.6599,3.6662,3.6662,3.6694,3.6692,3.6866,3.6721,3.6721,3.6721,3.672,0,3.5883,3.5968,3.6006,3.6066,3.6161,3.618,3.6273,3.6304,3.6354,3.642,3.6419,3.6481,3.6505,3.6572,3.6589,3.6684,3.6702,3.6716,3.6719,3.6715,3.6714,3.674,3.6732,3.6725,3.6724,3.6723,3.6723,0,3.5997,3.6026,3.6132,3.6195,3.6212,3.6279,3.6332,3.6391,3.6416,3.65,3.6521,3.6561,3.6639,3.6666,3.676,3.6772,3.6882,3.6879,3.6862,3.6863,3.6924,3.6917,3.712,3.7147,3.6986,3.6987,3.6989,0,3.6081,3.6146,3.6215,3.6259,3.6294,3.6366,3.6412,3.6434,3.6482,3.6554,3.6603,3.6681,3.6743,3.6868,3.6906,3.6978,3.6976,3.7042,3.6986,3.6981,3.6976,3.6971,3.6977,3.7051,3.7053,3.7055,3.7056,0,3.6226,3.6238,3.6304,3.6377,3.6432,3.649,3.6546,3.6582,3.6612,3.6666,3.6746,3.6795,3.6892,3.6968,3.7042,3.7076,3.7071,3.7073,3.7091,3.7087,3.7075,3.7081,3.6889,3.7068,3.7067,3.7066,3.7065,3.7065,3.6327,3.6384,3.6442,3.6517,3.6561,3.6614,3.6672,3.6705,3.6772,3.6853,3.6862,3.6947,3.7005,3.7104,3.7141,3.7208,3.719,3.7217,3.7223,3.7229,3.7233,3.7065,3.7222,3.7222,3.7222,3.7221,3.7221,0,3.6471,3.6509,3.6577,3.6656,3.6715,3.6706,3.6767,3.6817,3.6893,3.6947,3.7009,3.7101,3.7176,3.7219,3.7294,3.734,3.7339,3.7358,3.7355,3.7362,3.7246,3.7222,3.7358,3.7358,3.7358,3.7358,3.7358,3.7357,3.6553,3.665,3.6669,3.6788,3.6824,3.6909,3.6945,3.6993,3.7037,3.7139,3.7201,3.723,3.728,3.7359,3.7427,3.7438,3.7465,3.7486,3.7495,3.7385,3.7371,3.7357,3.7335,3.7492,3.7492,3.7606,3.7607,3.7608]},{"header":{"parameterUnit":"m.s-1","parameterCategory":1,"la1":30.2991,"la2":30.254,"lo1":-89.0895,"lo2":-89.0444,"dy":0.0017,"dx":0.0017,"nx":28,"ny":28,"refTime":"2024-04-29T03:00:00:Z","depth":0,"parameterNumber":3,"parameterNumberName":"V-component_of_WINDS"},"data":[0,0,0,0,0,0,0,0,0,0,0,0,0,0,0,0,0,0,0,0,0,0,0,0,0,0,0,0,0,0,0,0,0,0,0,0,0,0,0,0,0,0,0,0,0,0,0,0,0,0,0,0,0,0,0,0,0,0,2.251,2.2514,0,2.2882,2.2887,2.2891,2.303,2.3029,2.3027,2.3026,2.3414,2.3426,2.3437,0,0,0,0,0,0,0,0,0,0,0,0,0,2.1925,2.1935,2.251,2.2514,2.2519,2.2882,2.2887,2.2892,2.303,2.3029,2.3027,2.3026,2.3411,2.3424,2.3438,0,0,0,0,0,0,0,0,0,0,0,0,0,2.2226,2.1938,2.2509,2.2631,2.2646,2.2881,2.2887,2.2893,2.303,2.3029,2.3027,2.3025,2.3406,2.3423,2.344,2.3582,0,0,2.3492,2.35,0,0,0,0,0,0,0,0,2.2209,2.2248,2.2609,2.2623,2.264,2.2908,2.2823,2.3124,2.3031,2.2885,2.3026,2.3024,2.3248,2.3278,2.3352,2.36,2.3617,2.3494,2.3504,2.3512,2.3516,0,0,0,0,0,0,0,2.2188,2.2232,2.2657,2.2614,2.2633,2.267,2.2711,2.2881,2.3072,2.2897,2.2908,2.295,2.3256,2.3335,2.3362,2.3622,2.3493,2.3509,2.3519,2.3526,2.4008,2.401,0,0,0,0,0,0,2.2146,2.2214,2.2646,2.2669,2.2415,2.2682,2.2728,2.2824,2.307,2.3106,2.2951,2.2955,2.3306,2.3342,2.3376,2.3561,2.3511,2.3528,2.3537,2.4006,2.4009,2.4011,0,0,0,0,0,0,2.2132,2.2183,2.2631,2.2444,2.2504,2.2694,2.2801,2.2832,2.2911,2.3111,2.3147,2.2996,2.3306,2.3352,2.353,2.3576,2.3535,2.3551,2.4003,2.4006,2.401,2.3928,0,0,0,0,0,0,2.2115,2.2177,2.2231,2.2444,2.2513,2.2775,2.2804,2.2841,2.294,2.2948,2.3163,2.3197,2.3309,2.3503,2.3547,2.3599,2.3564,2.3999,2.4004,2.4009,2.3928,2.3929,2.393,0,0,0,0,0,2.2094,2.2195,2.2233,2.2285,2.2585,2.2778,2.2818,2.2942,2.2942,2.3,2.3129,2.319,2.3563,2.352,2.357,2.3628,2.3997,2.4003,2.4008,2.3927,2.3929,2.393,0,0,0,0,0,0,2.1985,2.2225,2.2271,2.2443,2.2589,2.2801,2.2877,2.2939,2.309,2.3092,2.3242,2.329,2.3456,2.356,2.3508,2.378,2.3784,2.38,2.3706,2.3709,2.3709,2.3682,2.3579,0,0,0,0,0,2.198,2.2114,2.2318,2.2451,2.2521,2.2686,2.2775,2.2858,2.3016,2.3079,2.3221,2.3373,2.3525,2.3622,2.3773,2.3943,2.3993,2.4007,2.4008,2.4008,2.4021,2.412,2.413,2.403,2.403,2.403,0,0,2.1974,2.2121,2.2197,2.2433,2.2555,2.2693,2.2737,2.2881,2.2986,2.3102,2.3278,2.3387,2.3568,2.3742,2.3826,2.3834,2.4059,2.4015,2.4013,2.4027,2.4127,2.4136,2.4144,2.4034,2.4033,2.4032,0,0,2.2032,2.2156,2.2281,2.2403,2.2587,2.2696,2.2725,2.2928,2.3005,2.3183,2.3273,2.3401,2.3659,2.3784,2.3882,2.3987,2.405,2.4032,2.4038,2.4133,2.4141,2.4149,2.4188,2.42,2.4043,2.4043,2.4043,0,2.2001,2.2211,2.2338,2.2477,2.2579,2.2687,2.2817,2.2929,2.3154,2.3223,2.3227,2.3554,2.3683,2.3889,2.3914,2.3989,2.403,2.4009,2.4129,2.4138,2.4147,2.4187,2.4201,2.404,2.404,2.4041,2.4041,0,2.2165,2.2308,2.2387,2.2599,2.271,2.2843,2.2993,2.309,2.3163,2.3272,2.3454,2.3612,2.3797,2.3852,2.3926,2.407,2.4069,2.4099,2.4107,2.4151,2.4191,2.4207,2.4035,2.4036,2.4037,2.4038,0,0,2.2167,2.2446,2.2474,2.2572,2.2782,2.2898,2.3036,2.3215,2.3297,2.3448,2.357,2.3785,2.3815,2.3925,2.4014,2.4097,2.4173,2.4118,2.4125,2.4124,2.4343,2.432,2.4336,2.4214,2.4218,2.422,2.4329,0,2.2255,2.2506,2.2624,2.2824,2.296,2.3064,2.3186,2.3329,2.3434,2.3567,2.3684,2.3835,2.3861,2.3929,2.4016,2.4144,2.4219,2.4138,2.4332,2.4338,2.4286,2.4356,2.4333,2.4428,2.4345,2.4348,2.435,0,2.2391,2.254,2.2752,2.2947,2.3009,2.3116,2.329,2.3414,2.358,2.3651,2.3773,2.3859,2.4012,2.4007,2.4221,2.4163,2.4249,2.4324,2.4331,2.4356,2.4347,2.4385,2.4461,2.4475,2.4375,2.4373,2.4371,0,2.2374,2.2627,2.2788,2.2868,2.3099,2.3172,2.3272,2.3436,2.3536,2.3689,2.3756,2.3925,2.4018,2.4148,2.4278,2.4262,2.448,2.4486,2.4546,2.4542,2.4589,2.4585,2.4681,2.464,2.464,2.4639,2.4639,0,2.2461,2.2587,2.2783,2.2881,2.3027,2.3162,2.3303,2.3412,2.3556,2.368,2.3781,2.3895,2.4059,2.4194,2.4297,2.4459,2.45,2.4564,2.459,2.4557,2.4548,2.4617,2.4615,2.4643,2.4642,2.4642,2.4641,0,2.2467,2.2603,2.2784,2.2988,2.3042,2.314,2.3316,2.3417,2.3526,2.3681,2.3726,2.3899,2.4064,2.4205,2.4423,2.4492,2.4661,2.4691,2.4604,2.4618,2.4671,2.4665,2.4817,2.4845,2.4781,2.4782,2.4782,0,2.2515,2.2614,2.2828,2.2916,2.3014,2.3156,2.3258,2.3396,2.3499,2.3695,2.3773,2.3945,2.4089,2.4348,2.4495,2.4662,2.4699,2.4741,2.4725,2.4688,2.4703,2.4696,2.4708,2.4742,2.4742,2.4742,2.4742,0,2.2586,2.2648,2.279,2.2956,2.3075,2.3213,2.3354,2.3421,2.3586,2.3697,2.3865,2.3977,2.4198,2.4368,2.4552,2.4658,2.4729,2.4745,2.4768,2.4736,2.4682,2.4715,2.4608,2.4742,2.4742,2.4742,2.4742,2.4742,2.2617,2.271,2.2875,2.303,2.315,2.328,2.3385,2.3507,2.3649,2.3838,2.3911,2.4084,2.4249,2.4502,2.4608,2.4747,2.4758,2.4791,2.48,2.4807,2.4802,2.4657,2.4781,2.4781,2.4781,2.4781,2.4781,0,2.2695,2.2805,2.2947,2.314,2.3263,2.3315,2.3474,2.3574,2.3724,2.387,2.401,2.4204,2.437,2.4528,2.4703,2.4783,2.482,2.4825,2.4821,2.4845,2.4781,2.4745,2.4792,2.4792,2.4792,2.4792,2.4792,2.4792,2.275,2.2911,2.2993,2.3216,2.3327,2.3495,2.3581,2.3702,2.382,2.4031,2.4168,2.427,2.4423,2.4609,2.4763,2.4806,2.4867,2.4863,2.4914,2.4852,2.4849,2.4847,2.4813,2.4874,2.4874,2.4968,2.4968,2.4969]}]]